GATCU FPPR-FGSL

Flight info

Callsign GATCU
Flight time 1h 3m
Altitude 2500
Route VFR DCT
Aircraft BN2/L-V/N

Departure

Time 2026-05-04 18:27
Airport Principe Airport (FPPR)

Arrival

Time 2026-05-04 19:30
Airport Malabo International Airport (FGSL)
Time Latitude Longitude Altitude Speed Heading
2026-05-04 18:20 1.66537 7.41202 582 ft 0 kts 234°
2026-05-04 18:25 1.66535 7.41201 581 ft 2 kts 223°
2026-05-04 18:25 1.66498 7.41187 580 ft 7 kts 220°
2026-05-04 18:26 1.66478 7.41140 580 ft 7 kts 260°
2026-05-04 18:26 1.66450 7.41103 580 ft 5 kts 185°
2026-05-04 18:26 1.66332 7.41106 582 ft 44 kts 177°
2026-05-04 18:26 1.65841 7.41096 599 ft 89 kts 179°
2026-05-04 18:27 1.65203 7.41066 798 ft 93 kts 179°
2026-05-04 18:27 1.64674 7.41384 960 ft 106 kts 108°
2026-05-04 18:27 1.64895 7.42124 1150 ft 119 kts 56°
2026-05-04 18:27 1.65417 7.42795 1383 ft 123 kts 55°
2026-05-04 18:28 1.65935 7.43480 1603 ft 125 kts 54°
2026-05-04 18:28 1.66464 7.44182 1843 ft 126 kts 55°
2026-05-04 18:28 1.67010 7.44894 1981 ft 135 kts 53°
2026-05-04 18:28 1.67699 7.45622 2004 ft 149 kts 48°
2026-05-04 18:29 1.68455 7.46386 2000 ft 159 kts 47°
2026-05-04 18:29 1.69262 7.47196 2000 ft 166 kts 48°
2026-05-04 18:29 1.70085 7.48026 1999 ft 171 kts 47°
2026-05-04 18:29 1.70927 7.48884 2000 ft 174 kts 47°
2026-05-04 18:30 1.72866 7.50388 2002 ft 178 kts 34°
2026-05-04 18:30 1.73927 7.51077 2002 ft 179 kts 34°
2026-05-04 18:30 1.74975 7.51753 2002 ft 180 kts 34°
2026-05-04 18:31 1.76037 7.52436 2001 ft 180 kts 34°
2026-05-04 18:31 1.77091 7.53115 2001 ft 181 kts 34°
2026-05-04 18:31 1.78163 7.53804 2002 ft 180 kts 34°
2026-05-04 18:31 1.79206 7.54480 1999 ft 177 kts 34°
2026-05-04 18:32 1.80224 7.55138 2000 ft 172 kts 34°
2026-05-04 18:32 1.81227 7.55793 1999 ft 168 kts 35°
2026-05-04 18:32 1.82208 7.56428 2000 ft 166 kts 34°
2026-05-04 18:32 1.83172 7.57052 2000 ft 164 kts 34°
2026-05-04 18:33 1.84134 7.57671 2001 ft 165 kts 34°
2026-05-04 18:33 1.85106 7.58294 2002 ft 166 kts 34°
2026-05-04 18:33 1.86110 7.58895 2002 ft 166 kts 31°
2026-05-04 18:33 1.87123 7.59456 2002 ft 167 kts 30°
2026-05-04 18:34 1.88148 7.60020 2001 ft 167 kts 30°
2026-05-04 18:34 1.89166 7.60582 2002 ft 167 kts 30°
2026-05-04 18:34 1.90184 7.61146 2001 ft 167 kts 30°
2026-05-04 18:34 1.91196 7.61713 2001 ft 167 kts 31°
2026-05-04 18:35 1.92218 7.62282 2002 ft 167 kts 30°
2026-05-04 18:35 1.93242 7.62855 2001 ft 167 kts 31°
2026-05-04 18:35 1.94255 7.63420 2002 ft 167 kts 30°
2026-05-04 18:35 1.95271 7.63987 2002 ft 167 kts 31°
2026-05-04 18:36 1.96286 7.64554 2001 ft 166 kts 30°
2026-05-04 18:36 1.97302 7.65122 2002 ft 166 kts 30°
2026-05-04 18:36 1.98320 7.65689 2001 ft 166 kts 30°
2026-05-04 18:36 1.99339 7.66259 2001 ft 166 kts 30°
2026-05-04 18:37 2.00358 7.66828 2001 ft 166 kts 31°
2026-05-04 18:37 2.01370 7.67391 2002 ft 166 kts 30°
2026-05-04 18:37 2.02384 7.67960 2001 ft 166 kts 31°
2026-05-04 18:37 2.03400 7.68527 2001 ft 166 kts 31°
2026-05-04 18:38 2.04415 7.69094 2002 ft 166 kts 31°
2026-05-04 18:38 2.05419 7.69660 2001 ft 166 kts 31°
2026-05-04 18:38 2.06431 7.70226 2001 ft 166 kts 31°
2026-05-04 18:38 2.07450 7.70797 2002 ft 166 kts 31°
2026-05-04 18:39 2.08467 7.71365 2001 ft 166 kts 31°
2026-05-04 18:39 2.09468 7.71925 2001 ft 166 kts 30°
2026-05-04 18:39 2.10492 7.72499 2001 ft 166 kts 30°
2026-05-04 18:39 2.11494 7.73063 1999 ft 166 kts 31°
2026-05-04 18:40 2.12504 7.73631 1998 ft 166 kts 31°
2026-05-04 18:40 2.13516 7.74200 1997 ft 166 kts 31°
2026-05-04 18:40 2.14531 7.74771 1997 ft 166 kts 31°
2026-05-04 18:40 2.15547 7.75342 1995 ft 166 kts 31°
2026-05-04 18:41 2.16559 7.75911 1995 ft 166 kts 31°
2026-05-04 18:41 2.17555 7.76475 1994 ft 166 kts 31°
2026-05-04 18:41 2.18575 7.77050 1994 ft 166 kts 31°
2026-05-04 18:41 2.19581 7.77616 1995 ft 166 kts 30°
2026-05-04 18:42 2.20594 7.78188 1994 ft 166 kts 30°
2026-05-04 18:42 2.21604 7.78759 1993 ft 166 kts 31°
2026-05-04 18:42 2.22619 7.79330 1993 ft 166 kts 30°
2026-05-04 18:42 2.23623 7.79897 1992 ft 166 kts 30°
2026-05-04 18:43 2.24635 7.80468 1993 ft 166 kts 31°
2026-05-04 18:43 2.25644 7.81037 1990 ft 166 kts 31°
2026-05-04 18:43 2.26647 7.81605 1986 ft 165 kts 31°
2026-05-04 18:43 2.27662 7.82175 1984 ft 166 kts 31°
2026-05-04 18:44 2.28666 7.82738 1982 ft 167 kts 30°
2026-05-04 18:44 2.29358 7.83125 1981 ft 168 kts 31°
2026-05-04 18:44 2.30727 7.83895 1980 ft 169 kts 30°
2026-05-04 18:44 2.31746 7.84473 1980 ft 169 kts 31°
2026-05-04 18:45 2.32778 7.85056 1980 ft 170 kts 31°
2026-05-04 18:45 2.33826 7.85652 1980 ft 170 kts 31°
2026-05-04 18:45 2.34848 7.86234 1980 ft 171 kts 31°
2026-05-04 18:45 2.35889 7.86825 1980 ft 171 kts 31°
2026-05-04 18:46 2.36938 7.87420 1980 ft 171 kts 31°
2026-05-04 18:46 2.37967 7.88005 1980 ft 171 kts 30°
2026-05-04 18:46 2.39003 7.88593 1980 ft 171 kts 31°
2026-05-04 18:46 2.40047 7.89185 1980 ft 171 kts 31°
2026-05-04 18:47 2.41079 7.89765 1980 ft 170 kts 30°
2026-05-04 18:47 2.42123 7.90356 1980 ft 170 kts 30°
2026-05-04 18:47 2.43147 7.90938 1980 ft 170 kts 31°
2026-05-04 18:47 2.44182 7.91526 1980 ft 170 kts 31°
2026-05-04 18:48 2.45227 7.92122 1980 ft 170 kts 31°
2026-05-04 18:48 2.46260 7.92711 1983 ft 170 kts 31°
2026-05-04 18:48 2.47294 7.93302 1985 ft 170 kts 31°
2026-05-04 18:48 2.48326 7.93891 1988 ft 170 kts 31°
2026-05-04 18:49 2.49355 7.94477 1990 ft 170 kts 30°
2026-05-04 18:49 2.50385 7.95064 1991 ft 170 kts 31°
2026-05-04 18:49 2.51425 7.95657 1991 ft 170 kts 30°
2026-05-04 18:49 2.52467 7.96250 1991 ft 170 kts 31°
2026-05-04 18:50 2.53502 7.96839 1990 ft 170 kts 31°
2026-05-04 18:50 2.54524 7.97419 1992 ft 170 kts 31°
2026-05-04 18:50 2.55558 7.98006 1994 ft 169 kts 31°
2026-05-04 18:50 2.56593 7.98594 1997 ft 169 kts 31°
2026-05-04 18:51 2.57611 7.99167 2000 ft 169 kts 31°
2026-05-04 18:51 2.58644 7.99747 2001 ft 169 kts 31°
2026-05-04 18:51 2.59675 8.00332 2001 ft 169 kts 31°
2026-05-04 18:51 2.60711 8.00924 2001 ft 170 kts 31°
2026-05-04 18:52 2.61739 8.01511 2001 ft 170 kts 31°
2026-05-04 18:52 2.62780 8.02108 2001 ft 171 kts 31°
2026-05-04 18:52 2.63813 8.02702 2001 ft 170 kts 31°
2026-05-04 18:52 2.64837 8.03290 2001 ft 171 kts 31°
2026-05-04 18:53 2.65877 8.03888 2001 ft 171 kts 31°
2026-05-04 18:53 2.66918 8.04485 2001 ft 171 kts 31°
2026-05-04 18:53 2.67952 8.05079 2001 ft 170 kts 31°
2026-05-04 18:53 2.68977 8.05665 2001 ft 170 kts 31°
2026-05-04 18:54 2.70009 8.06256 2001 ft 170 kts 31°
2026-05-04 18:54 2.71040 8.06846 2001 ft 169 kts 31°
2026-05-04 18:54 2.72072 8.07435 2001 ft 170 kts 31°
2026-05-04 18:54 2.73015 8.08143 1995 ft 168 kts 49°
2026-05-04 18:55 2.73785 8.09029 2000 ft 168 kts 50°
2026-05-04 18:55 2.75290 8.10816 2001 ft 168 kts 51°
2026-05-04 18:55 2.76052 8.11722 2001 ft 168 kts 51°
2026-05-04 18:56 2.76814 8.12619 2001 ft 169 kts 51°
2026-05-04 18:56 2.77570 8.13514 2001 ft 169 kts 51°
2026-05-04 18:56 2.78329 8.14418 2001 ft 169 kts 51°
2026-05-04 18:56 2.79092 8.15322 2001 ft 169 kts 51°
2026-05-04 18:57 2.79850 8.16211 2001 ft 168 kts 51°
2026-05-04 18:57 2.80618 8.17114 2001 ft 168 kts 51°
2026-05-04 18:57 2.81377 8.18004 2001 ft 168 kts 51°
2026-05-04 18:57 2.82137 8.18897 2001 ft 168 kts 51°
2026-05-04 18:58 2.82890 8.19785 2001 ft 168 kts 51°
2026-05-04 18:58 2.83645 8.20677 2001 ft 168 kts 51°
2026-05-04 18:58 2.84405 8.21578 2001 ft 168 kts 51°
2026-05-04 18:58 2.85158 8.22475 2001 ft 168 kts 51°
2026-05-04 18:59 2.85913 8.23377 2001 ft 168 kts 51°
2026-05-04 18:59 2.86661 8.24273 2001 ft 169 kts 51°
2026-05-04 18:59 2.87418 8.25183 2001 ft 169 kts 51°
2026-05-04 18:59 2.88178 8.26091 2001 ft 169 kts 51°
2026-05-04 19:00 2.88930 8.26993 2001 ft 170 kts 51°
2026-05-04 19:00 2.89689 8.27904 2001 ft 169 kts 51°
2026-05-04 19:00 2.90447 8.28810 2001 ft 169 kts 51°
2026-05-04 19:00 2.91207 8.29718 2001 ft 169 kts 51°
2026-05-04 19:01 2.91968 8.30625 2001 ft 168 kts 51°
2026-05-04 19:01 2.92722 8.31517 2001 ft 168 kts 50°
2026-05-04 19:01 2.93476 8.32418 2001 ft 168 kts 51°
2026-05-04 19:01 2.94227 8.33316 2001 ft 168 kts 51°
2026-05-04 19:02 2.94977 8.34217 2001 ft 169 kts 51°
2026-05-04 19:02 2.95735 8.35129 2001 ft 169 kts 51°
2026-05-04 19:02 2.96484 8.36029 2001 ft 169 kts 51°
2026-05-04 19:02 2.97250 8.36949 2001 ft 169 kts 51°
2026-05-04 19:03 2.98001 8.37849 2001 ft 170 kts 51°
2026-05-04 19:03 2.98765 8.38770 2002 ft 170 kts 51°
2026-05-04 19:03 2.99517 8.39677 2001 ft 170 kts 51°
2026-05-04 19:03 3.00274 8.40593 2002 ft 170 kts 51°
2026-05-04 19:04 3.01025 8.41512 2000 ft 170 kts 51°
2026-05-04 19:04 3.01776 8.42437 2001 ft 170 kts 51°
2026-05-04 19:04 3.02521 8.43353 2002 ft 170 kts 51°
2026-05-04 19:04 3.03272 8.44264 2001 ft 169 kts 51°
2026-05-04 19:05 3.04027 8.45174 2001 ft 169 kts 51°
2026-05-04 19:05 3.04784 8.46084 2001 ft 169 kts 51°
2026-05-04 19:05 3.05530 8.46984 2001 ft 169 kts 51°
2026-05-04 19:05 3.06278 8.47895 2001 ft 169 kts 51°
2026-05-04 19:06 3.07029 8.48821 2001 ft 169 kts 51°
2026-05-04 19:06 3.07766 8.49736 1999 ft 169 kts 51°
2026-05-04 19:06 3.08578 8.50605 1998 ft 170 kts 43°
2026-05-04 19:06 3.09441 8.51419 1995 ft 170 kts 43°
2026-05-04 19:07 3.10307 8.52227 1993 ft 170 kts 43°
2026-05-04 19:07 3.11186 8.53046 1990 ft 170 kts 43°
2026-05-04 19:07 3.12049 8.53851 1988 ft 171 kts 43°
2026-05-04 19:07 3.12929 8.54680 1987 ft 171 kts 43°
2026-05-04 19:08 3.13785 8.55492 1985 ft 171 kts 43°
2026-05-04 19:08 3.14662 8.56326 1984 ft 171 kts 43°
2026-05-04 19:08 3.15532 8.57153 1983 ft 171 kts 43°
2026-05-04 19:08 3.16396 8.57977 1983 ft 171 kts 43°
2026-05-04 19:09 3.17256 8.58798 1985 ft 170 kts 43°
2026-05-04 19:09 3.18123 8.59626 1988 ft 170 kts 43°
2026-05-04 19:09 3.18986 8.60452 1991 ft 170 kts 43°
2026-05-04 19:09 3.19856 8.61288 1994 ft 170 kts 43°
2026-05-04 19:10 3.20714 8.62115 1996 ft 171 kts 43°
2026-05-04 19:10 3.21584 8.62952 1997 ft 171 kts 43°
2026-05-04 19:10 3.22434 8.63801 1991 ft 171 kts 49°
2026-05-04 19:10 3.23205 8.64730 1994 ft 170 kts 51°
2026-05-04 19:11 3.23868 8.65719 1997 ft 170 kts 57°
2026-05-04 19:11 3.24524 8.66742 1999 ft 170 kts 57°
2026-05-04 19:11 3.25161 8.67740 2002 ft 171 kts 57°
2026-05-04 19:11 3.25825 8.68781 2001 ft 170 kts 57°
2026-05-04 19:12 3.26480 8.69781 2007 ft 170 kts 52°
2026-05-04 19:12 3.28015 8.71613 2013 ft 169 kts 43°
2026-05-04 19:12 3.28931 8.72379 2017 ft 169 kts 35°
2026-05-04 19:13 3.29896 8.73087 2020 ft 169 kts 35°
2026-05-04 19:13 3.30852 8.73787 2025 ft 169 kts 35°
2026-05-04 19:13 3.31861 8.74411 2030 ft 169 kts 28°
2026-05-04 19:13 3.32896 8.74997 2034 ft 169 kts 28°
2026-05-04 19:14 3.33949 8.75589 2039 ft 169 kts 28°
2026-05-04 19:14 3.34971 8.76167 2040 ft 168 kts 28°
2026-05-04 19:14 3.36006 8.76754 2046 ft 168 kts 28°
2026-05-04 19:14 3.37049 8.77344 2049 ft 168 kts 28°
2026-05-04 19:15 3.38086 8.77928 2052 ft 168 kts 28°
2026-05-04 19:15 3.39134 8.78521 2055 ft 168 kts 28°
2026-05-04 19:15 3.40176 8.79110 2056 ft 168 kts 28°
2026-05-04 19:15 3.41232 8.79705 2055 ft 169 kts 28°
2026-05-04 19:16 3.42273 8.80292 2058 ft 169 kts 28°
2026-05-04 19:16 3.43309 8.80875 2058 ft 169 kts 28°
2026-05-04 19:16 3.44341 8.81464 2061 ft 169 kts 28°
2026-05-04 19:16 3.45378 8.82060 2064 ft 168 kts 28°
2026-05-04 19:17 3.46402 8.82644 2066 ft 168 kts 28°
2026-05-04 19:17 3.47413 8.83222 2066 ft 168 kts 28°
2026-05-04 19:17 3.48435 8.83803 2064 ft 168 kts 28°
2026-05-04 19:17 3.49452 8.84379 2065 ft 168 kts 28°
2026-05-04 19:18 3.50475 8.84956 2063 ft 168 kts 28°
2026-05-04 19:18 3.51499 8.85533 2059 ft 168 kts 28°
2026-05-04 19:18 3.52536 8.86116 2055 ft 168 kts 28°
2026-05-04 19:18 3.53547 8.86688 2054 ft 168 kts 28°
2026-05-04 19:19 3.54571 8.87269 2051 ft 168 kts 28°
2026-05-04 19:19 3.55600 8.87856 2049 ft 168 kts 28°
2026-05-04 19:19 3.56609 8.88429 2047 ft 168 kts 28°
2026-05-04 19:19 3.57633 8.89013 2044 ft 167 kts 28°
2026-05-04 19:20 3.58648 8.89593 2042 ft 167 kts 28°
2026-05-04 19:20 3.59656 8.90169 2038 ft 167 kts 28°
2026-05-04 19:20 3.60674 8.90752 2036 ft 167 kts 28°
2026-05-04 19:20 3.61699 8.91337 2033 ft 167 kts 28°
2026-05-04 19:21 3.62717 8.91919 2029 ft 167 kts 28°
2026-05-04 19:21 3.63733 8.92495 2024 ft 167 kts 28°
2026-05-04 19:21 3.64850 8.92729 2029 ft 165 kts 354°
2026-05-04 19:21 3.65950 8.92399 2022 ft 164 kts 337°
2026-05-04 19:22 3.67010 8.91984 2013 ft 165 kts 341°
2026-05-04 19:22 3.68130 8.91698 2014 ft 165 kts 345°
2026-05-04 19:22 3.69246 8.91430 2015 ft 164 kts 345°
2026-05-04 19:22 3.70368 8.91159 2016 ft 164 kts 345°
2026-05-04 19:23 3.71489 8.90890 2015 ft 164 kts 345°
2026-05-04 19:23 3.72602 8.90624 2014 ft 164 kts 345°
2026-05-04 19:23 3.73672 8.90219 2015 ft 164 kts 334°
2026-05-04 19:23 3.74667 8.89670 2006 ft 164 kts 316°
2026-05-04 19:24 3.75318 8.88746 2019 ft 162 kts 300°
2026-05-04 19:24 3.75848 8.87797 2011 ft 150 kts 298°
2026-05-04 19:24 3.76305 8.86932 2007 ft 131 kts 292°
2026-05-04 19:24 3.76602 8.86097 2012 ft 124 kts 288°
2026-05-04 19:25 3.76875 8.85303 2014 ft 120 kts 288°
2026-05-04 19:25 3.77145 8.84515 2011 ft 117 kts 288°
2026-05-04 19:25 3.77416 8.83724 1931 ft 122 kts 288°
2026-05-04 19:25 3.77697 8.82903 1865 ft 126 kts 288°
2026-05-04 19:26 3.77987 8.82064 1750 ft 130 kts 288°
2026-05-04 19:26 3.78285 8.81194 1633 ft 132 kts 288°
2026-05-04 19:26 3.78584 8.80310 1513 ft 133 kts 288°
2026-05-04 19:26 3.78878 8.79435 1394 ft 133 kts 288°
2026-05-04 19:27 3.79176 8.78549 1275 ft 133 kts 288°
2026-05-04 19:27 3.79470 8.77693 1229 ft 128 kts 288°
2026-05-04 19:27 3.79748 8.76865 1225 ft 122 kts 282°
2026-05-04 19:27 3.79865 8.76033 1228 ft 119 kts 274°
2026-05-04 19:28 3.79918 8.75211 1124 ft 125 kts 273°
2026-05-04 19:28 3.79942 8.74358 957 ft 113 kts 260°
2026-05-04 19:28 3.79497 8.73856 879 ft 97 kts 203°
2026-05-04 19:28 3.78860 8.73665 746 ft 88 kts 204°
2026-05-04 19:29 3.78340 8.73366 602 ft 84 kts 213°
2026-05-04 19:29 3.77882 8.73030 488 ft 77 kts 224°
2026-05-04 19:29 3.77507 8.72663 388 ft 75 kts 221°
2026-05-04 19:29 3.77124 8.72306 310 ft 78 kts 222°
2026-05-04 19:30 3.76702 8.71925 217 ft 80 kts 225°
2026-05-04 19:30 3.76294 8.71557 105 ft 74 kts 223°
2026-05-04 19:30 3.75945 8.71247 84 ft 59 kts 220°
2026-05-04 19:30 3.75713 8.71044 90 ft 13 kts 227°
2026-05-04 19:31 3.75642 8.71014 91 ft 9 kts 170°
2026-05-04 19:31 3.75586 8.71063 88 ft 12 kts 123°
2026-05-04 19:31 3.75508 8.71091 86 ft 12 kts 211°
2026-05-04 19:31 3.75443 8.71040 89 ft 13 kts 223°
2026-05-04 19:32 3.75351 8.70956 95 ft 21 kts 216°
2026-05-04 19:32 3.75220 8.70842 101 ft 27 kts 222°
2026-05-04 19:32 3.75067 8.70700 107 ft 31 kts 222°
2026-05-04 19:32 3.74908 8.70559 112 ft 23 kts 218°
2026-05-04 19:33 3.74833 8.70541 117 ft 7 kts 131°
2026-05-04 19:33 3.74844 8.70612 123 ft 15 kts 49°
2026-05-04 19:33 3.74937 8.70680 119 ft 16 kts 59°
2026-05-04 19:33 3.74915 8.70738 129 ft 4 kts 182°
2026-05-04 19:34 3.74898 8.70705 127 ft 0 kts 297°